Tracking 21607 objects as of 26-Oct-2020
HD Live streaming from Space Station
objects crossing your sky now

COSMOS 1503

Track COSMOS 1503 now!
10-day predictions
COSMOS 1503 is classified as:


NORAD ID: 14401
Int'l Code: 1983-103A
Perigee: 781.8 km
Apogee: 801.1 km
Inclination: 74.0 °
Period: 100.5 minutes
Semi major axis: 7162 km
RCS: 2.2071 m2 (large)
Launch date: October 12, 1983
Source: Commonwealth of Independent States (former USSR) (CIS)
Launch site: PLESETSK MISSILE AND SPACE COMPLEX (PKMTR)
aabbcc
Your satellite tracking list
Your tracking list is empty




NASA's NSSDC Master Catalog

Two Line Element Set (TLE):
1 14401U 83103A   20299.63031853 -.00000117  00000-0 -33712-4 0  9997
2 14401  74.0412 273.4322 0013421 183.9943 176.1103 14.32226290934658
Source of the keplerian elements: AFSPC